Year,Month,Day,Hour,Minute,Value (Times are PST for temperature in C)
2018,10,20,00,00,5.80
2018,10,20,00,01,5.70
2018,10,20,00,02,5.70
2018,10,20,00,03,5.70
2018,10,20,00,04,5.70
2018,10,20,00,05,5.70
2018,10,20,00,06,5.70
2018,10,20,00,07,5.70
2018,10,20,00,08,5.70
2018,10,20,00,09,5.70
2018,10,20,00,10,5.60
2018,10,20,00,11,5.60
2018,10,20,00,12,5.50
2018,10,20,00,13,5.50
2018,10,20,00,14,5.40
2018,10,20,00,15,5.40
2018,10,20,00,16,5.40
2018,10,20,00,17,5.40
2018,10,20,00,18,5.40
2018,10,20,00,19,5.40
2018,10,20,00,20,5.40
2018,10,20,00,21,5.50
2018,10,20,00,22,5.50
2018,10,20,00,23,5.50
2018,10,20,00,24,5.50
2018,10,20,00,25,5.50
2018,10,20,00,26,5.40
2018,10,20,00,27,5.40
2018,10,20,00,28,5.40
2018,10,20,00,29,5.40
2018,10,20,00,30,5.40
2018,10,20,00,31,5.40
2018,10,20,00,32,5.40
2018,10,20,00,33,5.40
2018,10,20,00,34,5.40
2018,10,20,00,35,5.40
2018,10,20,00,36,5.40
2018,10,20,00,37,5.40
2018,10,20,00,38,5.40
2018,10,20,00,39,5.30
2018,10,20,00,40,5.30
2018,10,20,00,41,5.30
2018,10,20,00,42,5.30
2018,10,20,00,43,5.30
2018,10,20,00,44,5.30
2018,10,20,00,45,5.30
2018,10,20,00,46,5.30
2018,10,20,00,47,5.30
2018,10,20,00,48,5.30
2018,10,20,00,49,5.30
2018,10,20,00,50,5.30
2018,10,20,00,51,5.30
2018,10,20,00,52,5.30
2018,10,20,00,53,5.30
2018,10,20,00,54,5.30
2018,10,20,00,55,5.30
2018,10,20,00,56,5.20
2018,10,20,00,57,5.20
2018,10,20,00,58,5.30
2018,10,20,00,59,5.30
2018,10,20,01,00,5.30
2018,10,20,01,01,5.30
2018,10,20,01,02,5.30
2018,10,20,01,03,5.30
2018,10,20,01,04,5.30
2018,10,20,01,05,5.30
2018,10,20,01,06,5.30
2018,10,20,01,07,5.30
2018,10,20,01,08,5.30
2018,10,20,01,09,5.30
2018,10,20,01,10,5.30
2018,10,20,01,11,5.30
2018,10,20,01,12,5.30
2018,10,20,01,13,5.30
2018,10,20,01,14,5.30
2018,10,20,01,15,5.30
2018,10,20,01,16,5.30
2018,10,20,01,17,5.30
2018,10,20,01,18,5.30
2018,10,20,01,19,5.30
2018,10,20,01,20,5.30
2018,10,20,01,21,5.30
2018,10,20,01,22,5.30
2018,10,20,01,23,5.30
2018,10,20,01,24,5.30
2018,10,20,01,25,5.20
2018,10,20,01,26,5.20
2018,10,20,01,27,5.20
2018,10,20,01,28,5.20
2018,10,20,01,29,5.20
2018,10,20,01,30,5.20
2018,10,20,01,31,5.30
2018,10,20,01,32,5.30
2018,10,20,01,33,5.30
2018,10,20,01,34,5.30
2018,10,20,01,35,5.30
2018,10,20,01,36,5.20
2018,10,20,01,37,5.20
2018,10,20,01,38,5.20
2018,10,20,01,39,5.20
2018,10,20,01,40,5.20
2018,10,20,01,41,5.20
2018,10,20,01,42,5.20
2018,10,20,01,43,5.20
2018,10,20,01,44,5.20
2018,10,20,01,45,5.20
2018,10,20,01,46,5.20
2018,10,20,01,47,5.20
2018,10,20,01,48,5.20
2018,10,20,01,49,5.20
2018,10,20,01,50,5.20
2018,10,20,01,51,5.20
2018,10,20,01,52,5.20
2018,10,20,01,53,5.20
2018,10,20,01,54,5.20
2018,10,20,01,55,5.10
2018,10,20,01,56,5.10
2018,10,20,01,57,5.10
2018,10,20,01,58,5.10
2018,10,20,01,59,5.00
2018,10,20,02,00,5.00
2018,10,20,02,01,5.00
2018,10,20,02,02,4.90
2018,10,20,02,03,4.90
2018,10,20,02,04,4.90
2018,10,20,02,05,4.80
2018,10,20,02,06,4.80
2018,10,20,02,07,4.70
2018,10,20,02,08,4.70
2018,10,20,02,09,4.60
2018,10,20,02,10,4.60
2018,10,20,02,11,4.50
2018,10,20,02,12,4.50
2018,10,20,02,13,4.50
2018,10,20,02,14,4.50
2018,10,20,02,15,4.40
2018,10,20,02,16,4.40
2018,10,20,02,17,4.40
2018,10,20,02,18,4.40
2018,10,20,02,19,4.40
2018,10,20,02,20,4.40
2018,10,20,02,21,4.40
2018,10,20,02,22,4.40
2018,10,20,02,23,4.40
2018,10,20,02,24,4.40
2018,10,20,02,25,4.40
2018,10,20,02,26,4.40
2018,10,20,02,27,4.40
2018,10,20,02,28,4.40
2018,10,20,02,29,4.50
2018,10,20,02,30,4.50
2018,10,20,02,31,4.50
2018,10,20,02,32,4.50
2018,10,20,02,33,4.50
2018,10,20,02,34,4.50
2018,10,20,02,35,4.40
2018,10,20,02,36,4.40
2018,10,20,02,37,4.40
2018,10,20,02,38,4.40
2018,10,20,02,39,4.50
2018,10,20,02,40,4.50
2018,10,20,02,41,4.50
2018,10,20,02,42,4.50
2018,10,20,02,43,4.50
2018,10,20,02,44,4.50
2018,10,20,02,45,4.50
2018,10,20,02,46,4.50
2018,10,20,02,47,4.50
2018,10,20,02,48,4.60
2018,10,20,02,49,4.60
2018,10,20,02,50,4.60
2018,10,20,02,51,4.60
2018,10,20,02,52,4.60
2018,10,20,02,53,4.60
2018,10,20,02,54,4.60
2018,10,20,02,55,4.60
2018,10,20,02,56,4.60
2018,10,20,02,57,4.60
2018,10,20,02,58,4.60
2018,10,20,02,59,4.50
2018,10,20,03,00,4.50
2018,10,20,03,01,4.40
2018,10,20,03,02,4.40
2018,10,20,03,03,4.30
2018,10,20,03,04,4.30
2018,10,20,03,05,4.30
2018,10,20,03,06,4.30
2018,10,20,03,07,4.30
2018,10,20,03,08,4.20
2018,10,20,03,09,4.20
2018,10,20,03,10,4.20
2018,10,20,03,11,4.20
2018,10,20,03,12,4.20
2018,10,20,03,13,4.20
2018,10,20,03,14,4.20
2018,10,20,03,15,4.10
2018,10,20,03,16,4.10
2018,10,20,03,17,4.10
2018,10,20,03,18,4.10
2018,10,20,03,19,4.10
2018,10,20,03,20,4.00
2018,10,20,03,21,4.00
2018,10,20,03,22,4.00
2018,10,20,03,23,3.90
2018,10,20,03,24,3.90
2018,10,20,03,25,3.90
2018,10,20,03,26,3.90
2018,10,20,03,27,3.80
2018,10,20,03,28,3.80
2018,10,20,03,29,3.80
2018,10,20,03,30,3.80
2018,10,20,03,31,3.80
2018,10,20,03,32,3.80
2018,10,20,03,33,3.80
2018,10,20,03,34,3.80
2018,10,20,03,35,3.70
2018,10,20,03,36,3.80
2018,10,20,03,37,3.80
2018,10,20,03,38,3.80
2018,10,20,03,39,3.80
2018,10,20,03,40,3.80
2018,10,20,03,41,3.80
2018,10,20,03,42,3.80
2018,10,20,03,43,3.70
2018,10,20,03,44,3.70
2018,10,20,03,45,3.70
2018,10,20,03,46,3.70
2018,10,20,03,47,3.70
2018,10,20,03,48,3.70
2018,10,20,03,49,3.80
2018,10,20,03,50,3.80
2018,10,20,03,51,3.80
2018,10,20,03,52,3.80
2018,10,20,03,53,3.80
2018,10,20,03,54,3.70
2018,10,20,03,55,3.70
2018,10,20,03,56,3.70
2018,10,20,03,57,3.70
2018,10,20,03,58,3.70
2018,10,20,03,59,3.60
2018,10,20,04,00,3.60
2018,10,20,04,01,3.60
2018,10,20,04,02,3.60
2018,10,20,04,03,3.60
2018,10,20,04,04,3.60
2018,10,20,04,05,3.60
2018,10,20,04,06,3.60
2018,10,20,04,07,3.60
2018,10,20,04,08,3.60
2018,10,20,04,09,3.60
2018,10,20,04,10,3.60
2018,10,20,04,11,3.60
2018,10,20,04,12,3.60
2018,10,20,04,13,3.50
2018,10,20,04,14,3.50
2018,10,20,04,15,3.50
2018,10,20,04,16,3.50
2018,10,20,04,17,3.40
2018,10,20,04,18,3.40
2018,10,20,04,19,3.40
2018,10,20,04,20,3.40
2018,10,20,04,21,3.40
2018,10,20,04,22,3.30
2018,10,20,04,23,3.30
2018,10,20,04,24,3.30
2018,10,20,04,25,3.30
2018,10,20,04,26,3.30
2018,10,20,04,27,3.30
2018,10,20,04,28,3.30
2018,10,20,04,29,3.30
2018,10,20,04,30,3.20
2018,10,20,04,31,3.20
2018,10,20,04,32,3.20
2018,10,20,04,33,3.20
2018,10,20,04,34,3.20
2018,10,20,04,35,3.20
2018,10,20,04,36,3.20
2018,10,20,04,37,3.20
2018,10,20,04,38,3.20
2018,10,20,04,39,3.20
2018,10,20,04,40,3.20
2018,10,20,04,41,3.10
2018,10,20,04,42,3.10
2018,10,20,04,43,3.10
2018,10,20,04,44,3.10
2018,10,20,04,45,3.10
2018,10,20,04,46,3.10
2018,10,20,04,47,3.10
2018,10,20,04,48,3.10
2018,10,20,04,49,3.20
2018,10,20,04,50,3.20
2018,10,20,04,51,3.20
2018,10,20,04,52,3.30
2018,10,20,04,53,3.30
2018,10,20,04,54,3.30
2018,10,20,04,55,3.30
2018,10,20,04,56,3.30
2018,10,20,04,57,3.30
2018,10,20,04,58,3.30
2018,10,20,04,59,3.30
2018,10,20,05,00,3.20
2018,10,20,05,01,3.20
2018,10,20,05,02,3.20
2018,10,20,05,03,3.20
2018,10,20,05,04,3.20
2018,10,20,05,05,3.20
2018,10,20,05,06,3.20
2018,10,20,05,07,3.20
2018,10,20,05,08,3.10
2018,10,20,05,09,3.10
2018,10,20,05,10,3.00
2018,10,20,05,11,3.00
2018,10,20,05,12,3.00
2018,10,20,05,13,2.90
2018,10,20,05,14,2.90
2018,10,20,05,15,2.90
2018,10,20,05,16,2.90
2018,10,20,05,17,2.90
2018,10,20,05,18,2.90
2018,10,20,05,19,2.90
2018,10,20,05,20,2.80
2018,10,20,05,21,2.80
2018,10,20,05,22,2.80
2018,10,20,05,23,2.90
2018,10,20,05,24,2.90
2018,10,20,05,25,2.90
2018,10,20,05,26,3.00
2018,10,20,05,27,3.00
2018,10,20,05,28,3.00
2018,10,20,05,29,3.00
2018,10,20,05,30,3.00
2018,10,20,05,31,2.90
2018,10,20,05,32,2.90
2018,10,20,05,33,2.90
2018,10,20,05,34,2.80
2018,10,20,05,35,2.80
2018,10,20,05,36,2.80
2018,10,20,05,37,2.80
2018,10,20,05,38,2.80
2018,10,20,05,39,2.90
2018,10,20,05,40,2.90
2018,10,20,05,41,2.90
2018,10,20,05,42,2.90
2018,10,20,05,43,2.90
2018,10,20,05,44,3.00
2018,10,20,05,45,3.00
2018,10,20,05,46,3.00
2018,10,20,05,47,3.10
2018,10,20,05,48,3.10
2018,10,20,05,49,3.10
2018,10,20,05,50,3.10
2018,10,20,05,51,3.10
2018,10,20,05,52,3.10
2018,10,20,05,53,3.00
2018,10,20,05,54,3.00
2018,10,20,05,55,3.00
2018,10,20,05,56,3.00
2018,10,20,05,57,3.00
2018,10,20,05,58,2.90
2018,10,20,05,59,2.90
2018,10,20,06,00,2.90
2018,10,20,06,01,2.90
2018,10,20,06,02,2.90
2018,10,20,06,03,2.80
2018,10,20,06,04,2.80
2018,10,20,06,05,2.80
2018,10,20,06,06,2.80
2018,10,20,06,07,2.80
2018,10,20,06,08,2.80
2018,10,20,06,09,2.80
2018,10,20,06,10,2.80
2018,10,20,06,11,2.80
2018,10,20,06,12,2.80
2018,10,20,06,13,2.80
2018,10,20,06,14,2.70
2018,10,20,06,15,2.70
2018,10,20,06,16,2.70
2018,10,20,06,17,2.70
2018,10,20,06,18,2.70
2018,10,20,06,19,2.70
2018,10,20,06,20,2.70
2018,10,20,06,21,2.60
2018,10,20,06,22,2.60
2018,10,20,06,23,2.60
2018,10,20,06,24,2.60
2018,10,20,06,25,2.60
2018,10,20,06,26,2.60
2018,10,20,06,27,2.60
2018,10,20,06,28,2.60
2018,10,20,06,29,2.70
2018,10,20,06,30,2.70
2018,10,20,06,31,2.70
2018,10,20,06,32,2.80
2018,10,20,06,33,2.80
2018,10,20,06,34,2.90
2018,10,20,06,35,2.90
2018,10,20,06,36,2.90
2018,10,20,06,37,2.90
2018,10,20,06,38,2.90
2018,10,20,06,39,2.90
2018,10,20,06,40,2.90
2018,10,20,06,41,3.00
2018,10,20,06,42,3.00
2018,10,20,06,43,3.00
2018,10,20,06,44,3.00
2018,10,20,06,45,3.00
2018,10,20,06,46,3.00
2018,10,20,06,47,3.10
2018,10,20,06,48,3.10
2018,10,20,06,49,3.10
2018,10,20,06,50,3.10
2018,10,20,06,51,3.10
2018,10,20,06,52,3.10
2018,10,20,06,53,3.20
2018,10,20,06,54,3.20
2018,10,20,06,55,3.20
2018,10,20,06,56,3.20
2018,10,20,06,57,3.30
2018,10,20,06,58,3.30
2018,10,20,06,59,3.30
2018,10,20,07,00,3.30
2018,10,20,07,01,3.30
2018,10,20,07,02,3.40
2018,10,20,07,03,3.40
2018,10,20,07,04,3.40
2018,10,20,07,05,3.40
2018,10,20,07,06,3.50
2018,10,20,07,07,3.50
2018,10,20,07,08,3.60
2018,10,20,07,09,3.60
2018,10,20,07,10,3.60
2018,10,20,07,11,3.60
2018,10,20,07,12,3.60
2018,10,20,07,13,3.60
2018,10,20,07,14,3.60
2018,10,20,07,15,3.60
2018,10,20,07,16,3.60
2018,10,20,07,17,3.50
2018,10,20,07,18,3.50
2018,10,20,07,19,3.50
2018,10,20,07,20,3.40
2018,10,20,07,21,3.40
2018,10,20,07,22,3.40
2018,10,20,07,23,3.40
2018,10,20,07,24,3.40
2018,10,20,07,25,3.40
2018,10,20,07,26,3.40
2018,10,20,07,27,3.50
2018,10,20,07,28,3.50
2018,10,20,07,29,3.50
2018,10,20,07,30,3.50
2018,10,20,07,31,3.50
2018,10,20,07,32,3.50
2018,10,20,07,33,3.60
2018,10,20,07,34,3.60
2018,10,20,07,35,3.60
2018,10,20,07,36,3.60
2018,10,20,07,37,3.70
2018,10,20,07,38,3.70
2018,10,20,07,39,3.70
2018,10,20,07,40,3.70
2018,10,20,07,41,3.70
2018,10,20,07,42,3.70
2018,10,20,07,43,3.70
2018,10,20,07,44,3.70
2018,10,20,07,45,3.70
2018,10,20,07,46,3.80
2018,10,20,07,47,3.80
2018,10,20,07,48,3.80
2018,10,20,07,49,3.80
2018,10,20,07,50,3.70
2018,10,20,07,51,3.70
2018,10,20,07,52,3.70
2018,10,20,07,53,3.70
2018,10,20,07,54,3.70
2018,10,20,07,55,3.70
2018,10,20,07,56,3.70
2018,10,20,07,57,3.70
2018,10,20,07,58,3.70
2018,10,20,07,59,3.70
2018,10,20,08,00,3.70
2018,10,20,08,01,3.70
2018,10,20,08,02,3.80
2018,10,20,08,03,3.80
2018,10,20,08,04,3.80
2018,10,20,08,05,3.80
2018,10,20,08,06,3.80
2018,10,20,08,07,3.80
2018,10,20,08,08,3.80
2018,10,20,08,09,3.80
2018,10,20,08,10,3.80
2018,10,20,08,11,3.80
2018,10,20,08,12,3.80
2018,10,20,08,13,3.80
2018,10,20,08,14,3.80
2018,10,20,08,15,3.80
2018,10,20,08,16,3.80
2018,10,20,08,17,3.80
2018,10,20,08,18,3.80
2018,10,20,08,19,3.80
2018,10,20,08,20,3.80
2018,10,20,08,21,3.80
2018,10,20,08,22,3.80
2018,10,20,08,23,3.90
2018,10,20,08,24,3.90
2018,10,20,08,25,3.90
2018,10,20,08,26,3.90
2018,10,20,08,27,3.90
2018,10,20,08,28,3.90
2018,10,20,08,29,4.00
2018,10,20,08,30,4.00
2018,10,20,08,31,4.00
2018,10,20,08,32,4.10
2018,10,20,08,33,4.10
2018,10,20,08,34,4.10
2018,10,20,08,35,4.10
2018,10,20,08,36,4.10
2018,10,20,08,37,4.20
2018,10,20,08,38,4.20
2018,10,20,08,39,4.20
2018,10,20,08,40,4.20
2018,10,20,08,41,4.20
2018,10,20,08,42,4.30
2018,10,20,08,43,4.30
2018,10,20,08,44,4.30
2018,10,20,08,45,4.30
2018,10,20,08,46,4.30
2018,10,20,08,47,4.30
2018,10,20,08,48,4.40
2018,10,20,08,49,4.40
2018,10,20,08,50,4.40
2018,10,20,08,51,4.40
2018,10,20,08,52,4.50
2018,10,20,08,53,4.50
2018,10,20,08,54,4.50
2018,10,20,08,55,4.60
2018,10,20,08,56,4.60
2018,10,20,08,57,4.60
2018,10,20,08,58,4.60
2018,10,20,08,59,4.60
2018,10,20,09,00,4.70
2018,10,20,09,01,4.70
2018,10,20,09,02,4.70
2018,10,20,09,03,4.70
2018,10,20,09,04,4.80
2018,10,20,09,05,4.80
2018,10,20,09,06,4.80
2018,10,20,09,07,4.90
2018,10,20,09,08,4.90
2018,10,20,09,09,5.00
2018,10,20,09,10,5.00
2018,10,20,09,11,5.10
2018,10,20,09,12,5.10
2018,10,20,09,13,5.20
2018,10,20,09,14,5.20
2018,10,20,09,15,5.30
2018,10,20,09,16,5.30
2018,10,20,09,17,5.30
2018,10,20,09,18,5.40
2018,10,20,09,19,5.40
2018,10,20,09,20,5.50
2018,10,20,09,21,5.50
2018,10,20,09,22,5.60
2018,10,20,09,23,5.60
2018,10,20,09,24,5.60
2018,10,20,09,25,5.70
2018,10,20,09,26,5.70
2018,10,20,09,27,5.80
2018,10,20,09,28,5.80
2018,10,20,09,29,5.80
2018,10,20,09,30,5.90
2018,10,20,09,31,5.90
2018,10,20,09,32,6.00
2018,10,20,09,33,6.00
2018,10,20,09,34,6.10
2018,10,20,09,35,6.10
2018,10,20,09,36,6.20
2018,10,20,09,37,6.20
2018,10,20,09,38,6.30
2018,10,20,09,39,6.30
2018,10,20,09,40,6.40
2018,10,20,09,41,6.40
2018,10,20,09,42,6.50
2018,10,20,09,43,6.60
2018,10,20,09,44,6.60
2018,10,20,09,45,6.70
2018,10,20,09,46,6.70
2018,10,20,09,47,6.80
2018,10,20,09,48,6.80
2018,10,20,09,49,6.90
2018,10,20,09,50,7.00
2018,10,20,09,51,7.00
2018,10,20,09,52,7.10
2018,10,20,09,53,7.20
2018,10,20,09,54,7.30
2018,10,20,09,55,7.40
2018,10,20,09,56,7.50
2018,10,20,09,57,7.60
2018,10,20,09,58,7.60
2018,10,20,09,59,7.70
2018,10,20,10,00,7.80
2018,10,20,10,01,7.90
2018,10,20,10,02,8.00
2018,10,20,10,03,8.10
2018,10,20,10,04,8.10
2018,10,20,10,05,8.20
2018,10,20,10,06,8.30
2018,10,20,10,07,8.40
2018,10,20,10,08,8.50
2018,10,20,10,09,8.60
2018,10,20,10,10,8.60
2018,10,20,10,11,8.70
2018,10,20,10,12,8.80
2018,10,20,10,13,8.90
2018,10,20,10,14,8.90
2018,10,20,10,15,8.90
2018,10,20,10,16,9.00
2018,10,20,10,17,9.00
2018,10,20,10,18,9.10
2018,10,20,10,19,9.10
2018,10,20,10,20,9.20
2018,10,20,10,21,9.20
2018,10,20,10,22,9.20
2018,10,20,10,23,9.20
2018,10,20,10,24,9.30
2018,10,20,10,25,9.30
2018,10,20,10,26,9.30
2018,10,20,10,27,9.40
2018,10,20,10,28,9.40
2018,10,20,10,29,9.40
2018,10,20,10,30,9.50
2018,10,20,10,31,9.50
2018,10,20,10,32,9.50
2018,10,20,10,33,9.50
2018,10,20,10,34,9.50
2018,10,20,10,35,9.40
2018,10,20,10,36,9.40
2018,10,20,10,37,9.50
2018,10,20,10,38,9.50
2018,10,20,10,39,9.50
2018,10,20,10,40,9.50
2018,10,20,10,41,9.60
2018,10,20,10,42,9.60
2018,10,20,10,43,9.60
2018,10,20,10,44,9.60
2018,10,20,10,45,9.60
2018,10,20,10,46,9.70
2018,10,20,10,47,9.70
2018,10,20,10,48,9.70
2018,10,20,10,49,9.70
2018,10,20,10,50,9.70
2018,10,20,10,51,9.70
2018,10,20,10,52,9.70
2018,10,20,10,53,9.70
2018,10,20,10,54,9.70
2018,10,20,10,55,9.70
2018,10,20,10,56,9.60
2018,10,20,10,57,9.60
2018,10,20,10,58,9.60
2018,10,20,10,59,9.60
2018,10,20,11,00,9.70
2018,10,20,11,01,9.70
2018,10,20,11,02,9.70
2018,10,20,11,03,9.70
2018,10,20,11,04,9.70
2018,10,20,11,05,9.70
2018,10,20,11,06,9.70
2018,10,20,11,07,9.70
2018,10,20,11,08,9.70
2018,10,20,11,09,9.70
2018,10,20,11,10,9.70
2018,10,20,11,11,9.70
2018,10,20,11,12,9.70
2018,10,20,11,13,9.70
2018,10,20,11,14,9.80
2018,10,20,11,15,9.80
2018,10,20,11,16,9.80
2018,10,20,11,17,9.80
2018,10,20,11,18,9.90
2018,10,20,11,19,9.90
2018,10,20,11,20,9.90
2018,10,20,11,21,9.90
2018,10,20,11,22,9.90
2018,10,20,11,23,10.00
2018,10,20,11,24,10.00
2018,10,20,11,25,10.10
2018,10,20,11,26,10.10
2018,10,20,11,27,10.10
2018,10,20,11,28,10.10
2018,10,20,11,29,10.10
2018,10,20,11,30,10.10
2018,10,20,11,31,10.10
2018,10,20,11,32,10.10
2018,10,20,11,33,10.10
2018,10,20,11,34,10.10
2018,10,20,11,35,10.10
2018,10,20,11,36,10.10
2018,10,20,11,37,10.00
2018,10,20,11,38,9.90
2018,10,20,11,39,9.90
2018,10,20,11,40,10.00
2018,10,20,11,41,10.00
2018,10,20,11,42,10.00
2018,10,20,11,43,10.00
2018,10,20,11,44,10.10
2018,10,20,11,45,10.10
2018,10,20,11,46,10.10
2018,10,20,11,47,10.10
2018,10,20,11,48,10.20
2018,10,20,11,49,10.20
2018,10,20,11,50,10.20
2018,10,20,11,51,10.20
2018,10,20,11,52,10.30
2018,10,20,11,53,10.30
2018,10,20,11,54,10.40
2018,10,20,11,55,10.40
2018,10,20,11,56,10.40
2018,10,20,11,57,10.40
2018,10,20,11,58,10.50
2018,10,20,11,59,10.50
2018,10,20,12,00,10.50
2018,10,20,12,01,10.50
2018,10,20,12,02,10.50
2018,10,20,12,03,10.60
2018,10,20,12,04,10.70
2018,10,20,12,05,10.70
2018,10,20,12,06,10.70
2018,10,20,12,07,10.70
2018,10,20,12,08,10.70
2018,10,20,12,09,10.70
2018,10,20,12,10,10.70
2018,10,20,12,11,10.70
2018,10,20,12,12,10.70
2018,10,20,12,13,10.80
2018,10,20,12,14,10.80
2018,10,20,12,15,10.80
2018,10,20,12,16,10.80
2018,10,20,12,17,10.90
2018,10,20,12,18,10.90
2018,10,20,12,19,11.00
2018,10,20,12,20,11.10
2018,10,20,12,21,11.10
2018,10,20,12,22,11.20
2018,10,20,12,23,11.20
2018,10,20,12,24,11.30
2018,10,20,12,25,11.30
2018,10,20,12,26,11.40
2018,10,20,12,27,11.40
2018,10,20,12,28,11.40
2018,10,20,12,29,11.40
2018,10,20,12,30,11.50
2018,10,20,12,31,11.50
2018,10,20,12,32,11.50
2018,10,20,12,33,11.60
2018,10,20,12,34,11.60
2018,10,20,12,35,11.60
2018,10,20,12,36,11.70
2018,10,20,12,37,11.80
2018,10,20,12,38,11.80
2018,10,20,12,39,11.80
2018,10,20,12,40,11.90
2018,10,20,12,41,11.90
2018,10,20,12,42,12.00
2018,10,20,12,43,12.00
2018,10,20,12,44,12.00
2018,10,20,12,45,12.10
2018,10,20,12,46,12.10
2018,10,20,12,47,12.20
2018,10,20,12,48,12.20
2018,10,20,12,49,12.20
2018,10,20,12,50,12.30
2018,10,20,12,51,12.30
2018,10,20,12,52,12.30
2018,10,20,12,53,12.30
2018,10,20,12,54,12.40
2018,10,20,12,55,12.40
2018,10,20,12,56,12.40
2018,10,20,12,57,12.50
2018,10,20,12,58,12.50
2018,10,20,12,59,12.60
2018,10,20,13,00,12.70
2018,10,20,13,01,12.70
2018,10,20,13,02,12.80
2018,10,20,13,03,12.80
2018,10,20,13,04,12.80
2018,10,20,13,05,12.80
2018,10,20,13,06,12.80
2018,10,20,13,07,12.80
2018,10,20,13,08,12.90
2018,10,20,13,09,12.90
2018,10,20,13,10,12.90
2018,10,20,13,11,12.90
2018,10,20,13,12,12.90
2018,10,20,13,13,12.90
2018,10,20,13,14,13.00
2018,10,20,13,15,13.00
2018,10,20,13,16,13.10
2018,10,20,13,17,13.10
2018,10,20,13,18,13.10
2018,10,20,13,19,13.10
2018,10,20,13,20,13.20
2018,10,20,13,21,13.20
2018,10,20,13,22,13.20
2018,10,20,13,23,13.20
2018,10,20,13,24,13.20
2018,10,20,13,25,13.20
2018,10,20,13,26,13.20
2018,10,20,13,27,13.30
2018,10,20,13,28,13.30
2018,10,20,13,29,13.40
2018,10,20,13,30,13.40
2018,10,20,13,31,13.50
2018,10,20,13,32,13.60
2018,10,20,13,33,13.60
2018,10,20,13,34,13.60
2018,10,20,13,35,13.70
2018,10,20,13,36,13.70
2018,10,20,13,37,13.70
2018,10,20,13,38,13.70
2018,10,20,13,39,13.70
2018,10,20,13,40,13.70
2018,10,20,13,41,13.70
2018,10,20,13,42,13.70
2018,10,20,13,43,13.70
2018,10,20,13,44,13.70
2018,10,20,13,45,13.70
2018,10,20,13,46,13.70
2018,10,20,13,47,13.70
2018,10,20,13,48,13.80
2018,10,20,13,49,13.70
2018,10,20,13,50,13.70
2018,10,20,13,51,13.70
2018,10,20,13,52,13.70
2018,10,20,13,53,13.80
2018,10,20,13,54,13.80
2018,10,20,13,55,13.80
2018,10,20,13,56,13.80
2018,10,20,13,57,13.90
2018,10,20,13,58,13.90
2018,10,20,13,59,13.90
2018,10,20,14,00,14.00
2018,10,20,14,01,14.00
2018,10,20,14,02,14.00
2018,10,20,14,03,14.00
2018,10,20,14,04,14.00
2018,10,20,14,05,14.00
2018,10,20,14,06,14.10
2018,10,20,14,07,14.10
2018,10,20,14,08,14.10
2018,10,20,14,09,14.20
2018,10,20,14,10,14.20
2018,10,20,14,11,14.30
2018,10,20,14,12,14.30
2018,10,20,14,13,14.30
2018,10,20,14,14,14.40
2018,10,20,14,15,14.40
2018,10,20,14,16,14.40
2018,10,20,14,17,14.40
2018,10,20,14,18,14.50
2018,10,20,14,19,14.50
2018,10,20,14,20,14.60
2018,10,20,14,21,14.60
2018,10,20,14,22,14.60
2018,10,20,14,23,14.60
2018,10,20,14,24,14.50
2018,10,20,14,25,14.50
2018,10,20,14,26,14.40
2018,10,20,14,27,14.40
2018,10,20,14,28,14.40
2018,10,20,14,29,14.40
2018,10,20,14,30,14.40
2018,10,20,14,31,14.50
2018,10,20,14,32,14.50
2018,10,20,14,33,14.60
2018,10,20,14,34,14.60
2018,10,20,14,35,14.60
2018,10,20,14,36,14.50
2018,10,20,14,37,14.50
2018,10,20,14,38,14.50
2018,10,20,14,39,14.40
2018,10,20,14,40,14.40
2018,10,20,14,41,14.40
2018,10,20,14,42,14.50
2018,10,20,14,43,14.50
2018,10,20,14,44,14.60
2018,10,20,14,45,14.60
2018,10,20,14,46,14.70
2018,10,20,14,47,14.70
2018,10,20,14,48,14.70
2018,10,20,14,49,14.80
2018,10,20,14,50,14.80
2018,10,20,14,51,14.90
2018,10,20,14,52,14.90
2018,10,20,14,53,14.90
2018,10,20,14,54,14.90
2018,10,20,14,55,14.90
2018,10,20,14,56,14.90
2018,10,20,14,57,14.80
2018,10,20,14,58,14.80
2018,10,20,14,59,14.70
2018,10,20,15,00,14.70
2018,10,20,15,01,14.60
2018,10,20,15,02,14.60
2018,10,20,15,03,14.60
2018,10,20,15,04,14.60
2018,10,20,15,05,14.60
2018,10,20,15,06,14.50
2018,10,20,15,07,14.50
2018,10,20,15,08,14.50
2018,10,20,15,09,14.40
2018,10,20,15,10,14.40
2018,10,20,15,11,14.40
2018,10,20,15,12,14.40
2018,10,20,15,13,14.40
2018,10,20,15,14,14.40
2018,10,20,15,15,14.40
2018,10,20,15,16,14.40
2018,10,20,15,17,14.40
2018,10,20,15,18,14.50
2018,10,20,15,19,14.40
2018,10,20,15,20,14.40
2018,10,20,15,21,14.40
2018,10,20,15,22,14.50
2018,10,20,15,23,14.50
2018,10,20,15,24,14.50
2018,10,20,15,25,14.50
2018,10,20,15,26,14.50
2018,10,20,15,27,14.50
2018,10,20,15,28,14.50
2018,10,20,15,29,14.50
2018,10,20,15,30,14.50
2018,10,20,15,31,14.50
2018,10,20,15,32,14.50
2018,10,20,15,33,14.50
2018,10,20,15,34,14.50
2018,10,20,15,35,14.40
2018,10,20,15,36,14.40
2018,10,20,15,37,14.40
2018,10,20,15,38,14.50
2018,10,20,15,39,14.50
2018,10,20,15,40,14.60
2018,10,20,15,41,14.60
2018,10,20,15,42,14.60
2018,10,20,15,43,14.60
2018,10,20,15,44,14.60
2018,10,20,15,45,14.60
2018,10,20,15,46,14.60
2018,10,20,15,47,14.60
2018,10,20,15,48,14.60
2018,10,20,15,49,14.50
2018,10,20,15,50,14.50
2018,10,20,15,51,14.50
2018,10,20,15,52,14.40
2018,10,20,15,53,14.40
2018,10,20,15,54,14.40
2018,10,20,15,55,14.40
2018,10,20,15,56,14.50
2018,10,20,15,57,14.50
2018,10,20,15,58,14.40
2018,10,20,15,59,14.40
2018,10,20,16,00,14.40
2018,10,20,16,01,14.30
2018,10,20,16,02,14.30
2018,10,20,16,03,14.30
2018,10,20,16,04,14.30
2018,10,20,16,05,14.30
2018,10,20,16,06,14.30
2018,10,20,16,07,14.20
2018,10,20,16,08,14.20
2018,10,20,16,09,14.20
2018,10,20,16,10,14.20
2018,10,20,16,11,14.20
2018,10,20,16,12,14.20
2018,10,20,16,13,14.20
2018,10,20,16,14,14.20
2018,10,20,16,15,14.30
2018,10,20,16,16,14.30
2018,10,20,16,17,14.30
2018,10,20,16,18,14.30
2018,10,20,16,19,14.30
2018,10,20,16,20,14.40
2018,10,20,16,21,14.40
2018,10,20,16,22,14.40
2018,10,20,16,23,14.40
2018,10,20,16,24,14.40
2018,10,20,16,25,14.40
2018,10,20,16,26,14.50
2018,10,20,16,27,14.50
2018,10,20,16,28,14.50
2018,10,20,16,29,14.60
2018,10,20,16,30,14.60
2018,10,20,16,31,14.70
2018,10,20,16,32,14.80
2018,10,20,16,33,14.80
2018,10,20,16,34,14.80
2018,10,20,16,35,14.80
2018,10,20,16,36,14.80
2018,10,20,16,37,14.80
2018,10,20,16,38,14.70
2018,10,20,16,39,14.60
2018,10,20,16,40,14.60
2018,10,20,16,41,14.50
2018,10,20,16,42,14.50
2018,10,20,16,43,14.50
2018,10,20,16,44,14.40
2018,10,20,16,45,14.40
2018,10,20,16,46,14.40
2018,10,20,16,47,14.30
2018,10,20,16,48,14.30
2018,10,20,16,49,14.20
2018,10,20,16,50,14.20
2018,10,20,16,51,14.10
2018,10,20,16,52,14.10
2018,10,20,16,53,14.00
2018,10,20,16,54,13.90
2018,10,20,16,55,13.80
2018,10,20,16,56,13.70
2018,10,20,16,57,13.60
2018,10,20,16,58,13.40
2018,10,20,16,59,13.30
2018,10,20,17,00,13.30
2018,10,20,17,01,13.20
2018,10,20,17,02,13.10
2018,10,20,17,03,13.10
2018,10,20,17,04,13.00
2018,10,20,17,05,12.90
2018,10,20,17,06,12.90
2018,10,20,17,07,12.80
2018,10,20,17,08,12.80
2018,10,20,17,09,12.80
2018,10,20,17,10,12.70
2018,10,20,17,11,12.70
2018,10,20,17,12,12.70
2018,10,20,17,13,12.70
2018,10,20,17,14,12.70
2018,10,20,17,15,12.70
2018,10,20,17,16,12.70
2018,10,20,17,17,12.70
2018,10,20,17,18,12.70
2018,10,20,17,19,12.60
2018,10,20,17,20,12.60
2018,10,20,17,21,12.50
2018,10,20,17,22,12.40
2018,10,20,17,23,12.40
2018,10,20,17,24,12.30
2018,10,20,17,25,12.30
2018,10,20,17,26,12.20
2018,10,20,17,27,12.10
2018,10,20,17,28,12.10
2018,10,20,17,29,12.10
2018,10,20,17,30,12.00
2018,10,20,17,31,12.00
2018,10,20,17,32,11.90
2018,10,20,17,33,11.80
2018,10,20,17,34,11.80
2018,10,20,17,35,11.80
2018,10,20,17,36,11.70
2018,10,20,17,37,11.70
2018,10,20,17,38,11.70
2018,10,20,17,39,11.70
2018,10,20,17,40,11.60
2018,10,20,17,41,11.60
2018,10,20,17,42,11.60
2018,10,20,17,43,11.50
2018,10,20,17,44,11.50
2018,10,20,17,45,11.50
2018,10,20,17,46,11.40
2018,10,20,17,47,11.40
2018,10,20,17,48,11.40
2018,10,20,17,49,11.40